Flag for U.S.A. Weather past 2 weeks in Hampton, Virginia, U.S.A.

Now
81 °F

Sunny.


Feels Like: 85 °F
Forecast: 73 / 83 °F
Wind: 3 mph from East

Location: Langley Air Force Base

Current Time: Aug 28, 2014 at 7:26:37 PM

Latest Report: Aug 28, 2014 at 6:58 PM


Visibility: 10 mi

Pressure: 29.97 "Hg

Humidity: 74%

Dew point: 72 °F

Location of HamptonLocation

Historic Weather in Hampton — Graph

°F

Hampton temperature yesterday

Maximum temperature yesterday: 83 °F (at 4:58 PM)
Minimum temperature yesterday: 64 °F (at 2:03 AM)
Average temperature yesterday: 73 °F

Past Weeks' High & Low Weather Summary

 TemperatureHumidityPressure
High87 °F (Aug 21, 1:58 PM)100% (Aug 16, 2:58 AM)30.16 "Hg (Aug 16, 2:58 AM)
Low64 °F (Aug 14, 6:58 AM)37% (Aug 14, 11:58 AM)29.76 "Hg (Aug 19, 2:49 AM)
Average76 °F81%29.99 "Hg
* Reported Aug 13 5:58 PM — Aug 28 5:58 PM, Hampton, Weather by CustomWeather, © 2014

Note: Actual official high and low records may vary slightly from our data, if they occured in-between our weather recording intervals... More about our weather records

Advertising

Hampton weather history for previous 24 hours

 ConditionsComfort  
Time TempWeatherWind HumidityBarometerVisibility
5:58 PM
Aug 28
83 °FSunny.6 mph68%29.97 "Hg10 mi
4:58 PM83 °FSunny.7 mph69%29.96 "Hg10 mi
3:58 PM83 °FSunny.8 mph70%29.95 "Hg10 mi
2:58 PM82 °FPassing clouds.7 mph73%29.96 "Hg10 mi
1:58 PM82 °FScattered clouds.8 mph74%29.97 "Hg10 mi
12:58 PM84 °FPassing clouds.6 mph68%29.97 "Hg10 mi
11:58 AM83 °FPassing clouds.6 mph69%29.98 "Hg10 mi
10:58 AM81 °FSunny.10 mph75%29.97 "Hg10 mi
9:58 AM80 °FSunny.12 mph76%29.97 "Hg10 mi
8:58 AM78 °FSunny.10 mph79%29.96 "Hg10 mi
7:58 AM75 °FSunny.7 mph81%29.94 "Hg10 mi
6:58 AM72 °FClear.6 mph91%29.93 "Hg10 mi
5:58 AM70 °FClear.7 mph94%29.91 "Hg10 mi
4:58 AM71 °FPassing clouds.6 mph92%29.90 "Hg10 mi
3:58 AM69 °FClear.6 mph97%29.90 "Hg10 mi
2:58 AM69 °FClear.5 mph99%29.91 "Hg10 mi
1:58 AM69 °FClear.5 mph99%29.91 "Hg10 mi
12:58 AM69 °FClear.5 mph99%29.92 "Hg10 mi
11:58 PM
Aug 27
69 °FClear.3 mph91%29.95 "Hg10 mi
10:58 PM68 °FClear.2 mph95%29.95 "Hg10 mi
9:58 PM69 °FClear.2 mph88%29.95 "Hg10 mi
8:58 PM70 °FClear.2 mph82%29.95 "Hg10 mi
7:58 PM75 °FSunny.2 mph66%29.95 "Hg10 mi
Weather by CustomWeather, © 2014

See weather overviewHow to use our weather pages